"read_dt","SO2 (ppb)","flags","PMT voltage (V)","lamp voltage (V)","lamp intensity (Hz)","internal temp (C)","react chamber temp (C)","sample flow (l/min)","pres (mmHg)","SO2 bkg (ppb)","SO2 coefficient"
2014-05-15 00:00:00,2782E-2,5C000410,-0724,1061,10030,027.9,045.3,0.156,752.0,01.17,0.508
2014-05-15 00:01:00,2791E-2,5C000410,-0724,1060,9897,027.9,045.3,0.156,752.0,01.17,0.508
2014-05-15 00:02:00,2834E-2,5C000410,-0724,1059,9963,027.9,045.3,0.156,752.0,01.17,0.508
2014-05-15 00:03:00,2762E-2,5C000410,-0724,1061,10016,027.9,045.3,0.156,751.9,01.17,0.508
2014-05-15 00:04:00,2820E-2,5C000410,-0724,1060,9974,027.9,045.3,0.156,751.9,01.17,0.508
2014-05-15 00:05:00,2827E-2,5C000400,-0724,1060,9933,027.9,045.3,0.156,752.0,01.17,0.508
2014-05-15 00:06:00,2766E-2,5C000400,-0724,1060,10073,027.9,045.3,0.156,751.9,01.17,0.508
2014-05-15 00:07:00,2809E-2,5C000400,-0724,1059,10037,027.9,045.3,0.156,751.9,01.17,0.508
2014-05-15 00:08:00,2829E-2,5C000410,-0724,1060,9862,027.9,045.3,0.156,751.8,01.17,0.508
2014-05-15 00:09:00,2823E-2,5C000410,-0724,1059,9965,027.9,045.3,0.156,751.8,01.17,0.508
2014-05-15 00:10:00,2826E-2,5C000400,-0724,1060,10000,027.9,045.3,0.156,751.8,01.17,0.508
2014-05-15 00:11:00,2818E-2,5C000410,-0724,1059,9952,027.9,045.3,0.156,751.7,01.17,0.508
2014-05-15 00:12:00,2875E-2,5C000410,-0724,1059,9794,027.9,045.3,0.156,751.8,01.17,0.508
2014-05-15 00:13:00,2832E-2,5C000400,-0724,1060,9938,027.9,045.3,0.156,751.7,01.17,0.508
2014-05-15 00:14:00,2825E-2,5C000410,-0724,1060,9934,027.9,045.3,0.156,751.6,01.17,0.508
2014-05-15 00:15:00,2771E-2,5C000410,-0724,1058,10122,027.7,045.3,0.156,751.7,01.17,0.508
2014-05-15 00:16:00,2815E-2,5C000410,-0724,1058,10030,027.7,045.3,0.156,751.7,01.17,0.508
2014-05-15 00:17:00,2791E-2,5C000400,-0724,1058,10095,027.5,045.3,0.156,751.7,01.17,0.508
2014-05-15 00:18:00,2848E-2,5C000410,-0724,1056,9859,027.5,045.3,0.156,751.7,01.17,0.508
2014-05-15 00:19:00,2869E-2,5C000410,-0724,1056,9981,027.4,045.3,0.156,751.7,01.17,0.508
2014-05-15 00:20:00,2788E-2,5C000400,-0724,1056,9825,027.3,045.3,0.157,751.7,01.17,0.508
2014-05-15 00:21:00,2799E-2,5C000400,-0724,1056,9875,027.1,045.3,0.157,751.7,01.17,0.508
2014-05-15 00:22:00,2854E-2,5C000400,-0724,1056,10037,027.1,045.3,0.157,751.7,01.17,0.508
2014-05-15 00:23:00,2849E-2,5C000410,-0724,1055,9978,027.0,045.3,0.157,751.7,01.17,0.508
2014-05-15 00:24:00,2823E-2,5C000400,-0724,1054,10033,026.9,045.3,0.158,751.8,01.17,0.508
2014-05-15 00:25:00,2843E-2,5C000410,-0724,1054,9994,026.8,045.3,0.158,751.8,01.17,0.508
2014-05-15 00:26:00,2838E-2,5C000400,-0724,1054,10188,026.7,045.3,0.158,751.8,01.17,0.508
2014-05-15 00:27:00,2873E-2,5C000400,-0724,1053,10066,026.6,045.3,0.158,751.8,01.17,0.508
2014-05-15 00:28:00,2899E-2,5C000410,-0724,1053,9927,026.6,045.3,0.158,751.8,01.17,0.508
2014-05-15 00:29:00,2934E-2,5C000410,-0724,1054,9965,026.5,045.3,0.159,751.8,01.17,0.508
2014-05-15 00:30:00,2833E-2,5C000410,-0724,1052,9881,026.4,045.3,0.159,751.8,01.17,0.508
2014-05-15 00:31:00,2896E-2,5C000410,-0724,1052,9960,026.3,045.3,0.159,751.9,01.17,0.508
2014-05-15 00:32:00,2873E-2,5C000400,-0724,1051,10261,026.2,045.3,0.159,751.9,01.17,0.508
2014-05-15 00:33:00,2894E-2,5C000400,-0724,1050,10029,026.2,045.3,0.160,751.8,01.17,0.508
2014-05-15 00:34:00,2879E-2,5C000410,-0724,1050,10017,026.1,045.3,0.160,751.9,01.17,0.508
2014-05-15 00:35:00,2858E-2,5C000400,-0724,1050,9927,026.0,045.2,0.160,751.9,01.17,0.508
2014-05-15 00:36:00,2842E-2,5C000410,-0724,1051,10081,025.9,045.3,0.160,751.9,01.17,0.508
2014-05-15 00:37:00,2888E-2,5C000400,-0724,1052,9994,025.9,045.3,0.160,752.0,01.17,0.508
2014-05-15 00:38:00,2900E-2,5C000400,-0724,1050,9968,025.8,045.3,0.160,752.0,01.17,0.508
2014-05-15 00:39:00,2894E-2,5C000410,-0724,1049,10005,025.8,045.3,0.161,752.0,01.17,0.508
2014-05-15 00:40:00,2912E-2,5C000400,-0724,1050,10022,025.7,045.3,0.161,752.0,01.17,0.508
2014-05-15 00:41:00,2929E-2,5C000400,-0724,1050,10059,025.7,045.2,0.161,752.0,01.17,0.508
2014-05-15 00:42:00,2913E-2,5C000410,-0724,1050,10095,025.6,045.2,0.161,752.0,01.17,0.508
2014-05-15 00:43:00,2872E-2,5C000400,-0724,1050,10015,025.6,045.2,0.161,752.0,01.17,0.508
2014-05-15 00:44:00,2867E-2,5C000400,-0724,1048,10184,025.5,045.2,0.162,752.1,01.17,0.508
2014-05-15 00:45:00,2886E-2,5C000410,-0724,1048,9983,025.5,045.3,0.162,752.1,01.17,0.508
2014-05-15 00:46:00,2905E-2,5C000400,-0724,1048,10018,025.4,045.2,0.162,752.1,01.17,0.508
2014-05-15 00:47:00,2939E-2,5C000400,-0724,1047,10075,025.4,045.2,0.162,752.1,01.17,0.508
2014-05-15 00:48:00,2908E-2,5C000400,-0724,1049,10082,025.4,045.2,0.162,752.1,01.17,0.508
2014-05-15 00:49:00,2909E-2,5C000400,-0724,1048,10053,025.3,045.2,0.162,752.1,01.17,0.508
2014-05-15 00:50:00,2923E-2,5C000400,-0724,1048,10173,025.3,045.2,0.162,752.1,01.17,0.508
2014-05-15 00:51:00,2912E-2,5C000410,-0724,1049,10200,025.3,045.2,0.163,752.1,01.17,0.508
2014-05-15 00:52:00,2920E-2,5C000400,-0724,1048,10041,025.2,045.2,0.163,752.1,01.17,0.508
2014-05-15 00:53:00,2914E-2,5C000400,-0724,1048,9894,025.2,045.2,0.163,752.2,01.17,0.508
2014-05-15 00:54:00,2858E-2,5C000410,-0724,1049,10095,025.2,045.2,0.163,752.2,01.17,0.508
2014-05-15 00:55:00,2866E-2,5C000410,-0724,1047,10193,025.1,045.2,0.163,752.1,01.17,0.508
2014-05-15 00:56:00,2890E-2,5C000410,-0724,1048,10090,025.1,045.2,0.163,752.2,01.17,0.508
2014-05-15 00:57:00,2884E-2,5C000410,-0724,1048,10233,025.1,045.3,0.163,752.2,01.17,0.508
2014-05-15 00:58:00,2928E-2,5C000410,-0724,1048,9924,025.1,045.2,0.163,752.2,01.17,0.508
2014-05-15 00:59:00,2886E-2,5C000400,-0724,1049,10254,025.1,045.2,0.163,752.2,01.17,0.508
2014-05-15 01:00:00,2910E-2,5C000400,-0724,1048,10134,025.1,045.2,0.163,752.2,01.17,0.508
2014-05-15 01:01:00,2923E-2,5C000400,-0724,1046,9788,025.1,045.2,0.163,752.2,01.17,0.508
2014-05-15 01:02:00,2903E-2,5C000400,-0724,1046,9932,025.0,045.2,0.163,752.3,01.17,0.508
2014-05-15 01:03:00,2914E-2,5C000400,-0724,1047,10100,025.0,045.2,0.163,752.2,01.17,0.508
2014-05-15 01:04:00,2937E-2,5C000400,-0724,1047,10077,025.0,045.2,0.163,752.3,01.17,0.508
2014-05-15 01:05:00,2919E-2,5C000400,-0724,1048,10031,025.0,045.2,0.164,752.3,01.17,0.508
2014-05-15 01:06:00,2953E-2,5C000400,-0724,1047,10088,025.0,045.2,0.164,752.3,01.17,0.508
2014-05-15 01:07:00,2940E-2,5C000410,-0724,1048,9939,025.0,045.2,0.164,752.3,01.17,0.508
